,,,PA_Meas_PMT16A,,PR_Meas_QMR101_102,,RH_Meas_QMH101,,SR_Meas_QMS101,,TA_Meas_QMH101,,GenWind,,GenWind,
date,time,status,PA,status,PR,status,RH,status,SR,status,TA,status,DirAvg,status,SpdAvg,
2009-04-11, 00:00:04,VALID,999.352,VALID,0,VALID,93.3942,VALID,0,VALID,24.15,VALID,150,VALID,0.454688,
2009-04-11, 00:01:04,VALID,999.308,VALID,0,VALID,93.3713,VALID,0,VALID,24.1696,VALID,151,VALID,0.263672,
2009-04-11, 00:02:04,VALID,999.284,VALID,0,VALID,93.3331,VALID,0,VALID,24.1891,VALID,151,VALID,0.25,
2009-04-11, 00:03:04,VALID,999.241,VALID,0,VALID,93.2034,VALID,0,VALID,24.2495,VALID,151,VALID,0.232812,
2009-04-11, 00:04:04,VALID,999.196,VALID,0,VALID,93.0737,VALID,0,VALID,24.2086,VALID,150,VALID,0.0421875,
2009-04-11, 00:05:04,VALID,999.157,VALID,0,VALID,93.1195,VALID,0,VALID,24.2281,VALID,150,VALID,0.141797,
2009-04-11, 00:06:04,VALID,999.141,VALID,0,VALID,93.0585,VALID,0,VALID,24.2476,VALID,151,VALID,0.00429688,
2009-04-11, 00:07:04,VALID,999.078,VALID,0,VALID,93.0508,VALID,0,VALID,24.269,VALID,150,VALID,0.197266,
2009-04-11, 00:08:04,VALID,999.062,VALID,0,VALID,92.9364,VALID,0,VALID,24.2671,VALID,150,VALID,0.117969,
2009-04-11, 00:09:04,VALID,999.009,VALID,0,VALID,92.7838,VALID,0,VALID,24.2476,VALID,150,VALID,0.125,
2009-04-11, 00:10:04,VALID,998.981,VALID,0,VALID,92.6541,VALID,0,VALID,24.2476,VALID,151,VALID,0,
2009-04-11, 00:11:04,VALID,998.977,VALID,0,VALID,92.5702,VALID,0,VALID,24.2281,VALID,151,VALID,0,
2009-04-11, 00:12:04,VALID,998.921,VALID,0,VALID,92.5473,VALID,0,VALID,24.2086,VALID,150,VALID,0,
2009-04-11, 00:13:04,VALID,998.889,VALID,0,VALID,92.532,VALID,0,VALID,24.1891,VALID,150,VALID,0,
2009-04-11, 00:14:04,VALID,998.903,VALID,0,VALID,92.5168,VALID,0,VALID,24.2104,VALID,150,VALID,0,
2009-04-11, 00:15:04,VALID,998.892,VALID,0,VALID,92.7075,VALID,0,VALID,24.2086,VALID,150,VALID,0.283594,
2009-04-11, 00:16:04,VALID,998.891,VALID,0,VALID,92.7762,VALID,0,VALID,24.2086,VALID,150,VALID,0.433594,
2009-04-11, 00:17:04,VALID,998.897,VALID,0,VALID,92.8143,VALID,0,VALID,24.2104,VALID,124,VALID,0.437109,
2009-04-11, 00:18:04,VALID,998.857,VALID,0,VALID,92.8906,VALID,0,VALID,24.1909,VALID,114,VALID,0.464063,
2009-04-11, 00:19:04,VALID,998.836,VALID,0,VALID,93.0051,VALID,0,VALID,24.1909,VALID,106,VALID,0.507813,
2009-04-11, 00:20:04,VALID,998.829,VALID,0,VALID,93.028,VALID,0,VALID,24.1696,VALID,106,VALID,0.541406,
2009-04-11, 00:21:04,VALID,998.794,VALID,0,VALID,92.9593,VALID,0,VALID,24.1714,VALID,44,VALID,0.713281,
2009-04-11, 00:22:04,VALID,998.749,VALID,0,VALID,92.9135,VALID,0,VALID,24.1324,VALID,35,VALID,0.960547,
2009-04-11, 00:23:04,VALID,998.764,VALID,0,VALID,92.9517,VALID,0,VALID,24.0933,VALID,27,VALID,1.20039,
2009-04-11, 00:24:04,VALID,998.735,VALID,0,VALID,93.0127,VALID,0,VALID,24.0329,VALID,19,VALID,0.989062,
2009-04-11, 00:25:04,VALID,998.736,VALID,0,VALID,93.089,VALID,0,VALID,24.0153,VALID,18,VALID,0.773438,
2009-04-11, 00:26:04,VALID,998.715,VALID,0,VALID,93.2721,VALID,0,VALID,23.9957,VALID,17,VALID,0.728906,
2009-04-11, 00:27:04,VALID,998.735,VALID,0,VALID,93.295,VALID,0,VALID,23.9957,VALID,17,VALID,0.183984,
2009-04-11, 00:28:04,VALID,998.747,VALID,0,VALID,93.4018,VALID,0,VALID,23.9762,VALID,17,VALID,0.190625,
2009-04-11, 00:29:04,VALID,998.735,VALID,0,VALID,93.4781,VALID,0,VALID,23.9762,VALID,17,VALID,0.420703,
2009-04-11, 00:30:04,VALID,998.76,VALID,0,VALID,93.5849,VALID,0,VALID,23.9567,VALID,17,VALID,0.238672,
2009-04-11, 00:31:04,VALID,998.718,VALID,0,VALID,93.707,VALID,0,VALID,23.9762,VALID,17,VALID,0.525781,
2009-04-11, 00:32:04,VALID,998.7,VALID,0,VALID,93.6917,VALID,0,VALID,23.9957,VALID,17,VALID,0.461719,
2009-04-11, 00:33:04,VALID,998.686,VALID,0,VALID,93.6841,VALID,0,VALID,23.9549,VALID,19,VALID,0.557422,
2009-04-11, 00:34:04,VALID,998.681,VALID,0,VALID,93.707,VALID,0,VALID,23.9744,VALID,19,VALID,0.599219,
2009-04-11, 00:35:04,VALID,998.628,VALID,0,VALID,93.8138,VALID,0,VALID,23.9762,VALID,20,VALID,0.750781,
2009-04-11, 00:36:04,VALID,998.588,VALID,0,VALID,93.9054,VALID,0,VALID,23.9957,VALID,23,VALID,0.573438,
2009-04-11, 00:37:04,VALID,998.531,VALID,0,VALID,93.8291,VALID,0,VALID,23.9957,VALID,23,VALID,0.412109,
2009-04-11, 00:38:04,VALID,998.543,VALID,0,VALID,93.7604,VALID,0,VALID,23.9549,VALID,23,VALID,0.146484,
2009-04-11, 00:39:04,VALID,998.489,VALID,0,VALID,93.6917,VALID,0,VALID,23.9549,VALID,23,VALID,0,
2009-04-11, 00:40:04,VALID,998.473,VALID,0,VALID,93.6536,VALID,0,VALID,23.9372,VALID,23,VALID,0,
2009-04-11, 00:41:04,VALID,998.453,VALID,0,VALID,93.7223,VALID,0,VALID,23.9372,VALID,23,VALID,0,
2009-04-11, 00:42:04,VALID,998.433,VALID,0,VALID,93.8443,VALID,0,VALID,23.9354,VALID,23,VALID,0.366406,
2009-04-11, 00:43:04,VALID,998.427,VALID,0,VALID,93.9359,VALID,0,VALID,23.9762,VALID,23,VALID,0.448047,
2009-04-11, 00:44:04,VALID,998.389,VALID,0,VALID,94.0045,VALID,0,VALID,23.9762,VALID,23,VALID,0.398047,
2009-04-11, 00:45:04,VALID,998.381,VALID,0,VALID,94.058,VALID,0,VALID,23.9744,VALID,23,VALID,0.355469,
2009-04-11, 00:46:04,VALID,998.347,VALID,0,VALID,94.1343,VALID,0,VALID,24.0153,VALID,23,VALID,0.370313,
2009-04-11, 00:47:04,VALID,998.346,VALID,0,VALID,94.1877,VALID,0,VALID,24.0543,VALID,156,VALID,0.86875,
2009-04-11, 00:48:04,VALID,998.339,VALID,0,VALID,94.1419,VALID,0,VALID,24.0543,VALID,152,VALID,1.16836,
2009-04-11, 00:49:04,VALID,998.391,VALID,0,VALID,94.1343,VALID,0,VALID,24.0348,VALID,150,VALID,1.06797,
2009-04-11, 00:50:04,VALID,998.359,VALID,0,VALID,94.058,VALID,0,VALID,24.0543,VALID,148,VALID,0.601563,
2009-04-11, 00:51:04,VALID,998.322,VALID,0,VALID,94.0274,VALID,0,VALID,24.0348,VALID,147,VALID,0.352344,
2009-04-11, 00:52:04,VALID,998.331,VALID,0,VALID,93.9969,VALID,0.112286,VALID,24.0329,VALID,147,VALID,0.559375,
2009-04-11, 00:53:04,VALID,998.343,VALID,0,VALID,93.9893,VALID,0,VALID,24.0329,VALID,147,VALID,0.502344,
2009-04-11, 00:54:04,VALID,998.322,VALID,0,VALID,93.9054,VALID,0,VALID,24.0134,VALID,147,VALID,0.553516,
2009-04-11, 00:55:04,VALID,998.318,VALID,0,VALID,93.9435,VALID,0.112286,VALID,23.9921,VALID,147,VALID,0.614062,
2009-04-11, 00:56:04,VALID,998.3,VALID,0,VALID,93.9664,VALID,0,VALID,24.0329,VALID,147,VALID,0.636719,
2009-04-11, 00:57:04,VALID,998.297,VALID,0,VALID,93.9511,VALID,0.112286,VALID,24.0329,VALID,147,VALID,0.628516,
2009-04-11, 00:58:04,VALID,998.279,VALID,0,VALID,93.9435,VALID,0,VALID,24.0329,VALID,147,VALID,0.528906,
2009-04-11, 00:59:04,VALID,998.265,VALID,0,VALID,93.8672,VALID,0,VALID,24.0134,VALID,147,VALID,0.448047,
2009-04-11, 01:00:04,VALID,998.253,VALID,0,VALID,93.7757,VALID,0,VALID,24.0134,VALID,147,VALID,0.372656,
2009-04-11, 01:01:04,VALID,998.255,VALID,0,VALID,93.707,VALID,0,VALID,23.9939,VALID,113,VALID,0.521875,
2009-04-11, 01:02:04,VALID,998.241,VALID,0,VALID,93.7451,VALID,0,VALID,23.9939,VALID,90,VALID,0.819531,
2009-04-11, 01:03:04,VALID,998.235,VALID,0,VALID,93.7451,VALID,0,VALID,23.9744,VALID,74,VALID,1.00469,
2009-04-11, 01:04:04,VALID,998.228,VALID,0,VALID,93.6307,VALID,0,VALID,23.9744,VALID,63,VALID,0.930469,
2009-04-11, 01:05:04,VALID,998.224,VALID,0,VALID,93.5926,VALID,0,VALID,23.9549,VALID,62,VALID,0.935547,
2009-04-11, 01:06:04,VALID,998.211,VALID,0,VALID,93.5086,VALID,0.112286,VALID,23.9354,VALID,62,VALID,0.912109,
2009-04-11, 01:07:04,VALID,998.192,VALID,0,VALID,93.4628,VALID,0,VALID,23.8963,VALID,71,VALID,0.930859,
2009-04-11, 01:08:04,VALID,998.202,VALID,0,VALID,93.5239,VALID,0,VALID,23.8963,VALID,81,VALID,0.891797,
2009-04-11, 01:09:04,VALID,998.18,VALID,0,VALID,93.5544,VALID,0,VALID,23.8963,VALID,67,VALID,0.994141,
2009-04-11, 01:10:04,VALID,998.181,VALID,0,VALID,93.6231,VALID,0,VALID,23.8963,VALID,56,VALID,1.04414,
2009-04-11, 01:11:04,VALID,998.199,VALID,0,VALID,93.6383,VALID,0,VALID,23.9159,VALID,49,VALID,1.10664,
2009-04-11, 01:12:04,VALID,998.208,VALID,0,VALID,93.5391,VALID,0,VALID,23.8963,VALID,42,VALID,1.13437,
2009-04-11, 01:13:04,VALID,998.216,VALID,0,VALID,93.4934,VALID,0,VALID,23.8963,VALID,36,VALID,0.944531,
2009-04-11, 01:14:04,VALID,998.195,VALID,0,VALID,93.44,VALID,0,VALID,23.8555,VALID,25,VALID,1.01523,
2009-04-11, 01:15:04,VALID,998.18,VALID,0,VALID,93.501,VALID,0.112286,VALID,23.8573,VALID,19,VALID,1.05586,
2009-04-11, 01:16:04,VALID,998.177,VALID,0,VALID,93.4628,VALID,0,VALID,23.8183,VALID,17,VALID,0.945703,
2009-04-11, 01:17:04,VALID,998.17,VALID,0,VALID,93.562,VALID,0,VALID,23.7988,VALID,14,VALID,0.882031,
2009-04-11, 01:18:04,VALID,998.167,VALID,0,VALID,93.6841,VALID,0.112286,VALID,23.7988,VALID,17,VALID,0.942969,
2009-04-11, 01:19:04,VALID,998.144,VALID,0,VALID,93.7909,VALID,0,VALID,23.7597,VALID,18,VALID,0.9625,
2009-04-11, 01:20:04,VALID,998.174,VALID,0,VALID,93.8062,VALID,0,VALID,23.7597,VALID,22,VALID,0.805078,
2009-04-11, 01:21:04,VALID,998.18,VALID,0,VALID,93.9206,VALID,0,VALID,23.7402,VALID,25,VALID,0.919141,
2009-04-11, 01:22:04,VALID,998.218,VALID,0,VALID,93.9817,VALID,0,VALID,23.7616,VALID,29,VALID,0.812109,
2009-04-11, 01:23:04,VALID,998.182,VALID,0,VALID,94.0732,VALID,0,VALID,23.742,VALID,41,VALID,0.660937,
2009-04-11, 01:24:04,VALID,998.238,VALID,0,VALID,94.2258,VALID,0,VALID,23.7811,VALID,49,VALID,0.741016,
2009-04-11, 01:25:04,VALID,998.221,VALID,0,VALID,94.2945,VALID,0,VALID,23.7793,VALID,66,VALID,0.737891,
2009-04-11, 01:26:04,VALID,998.238,VALID,0,VALID,94.2868,VALID,0,VALID,23.8201,VALID,66,VALID,0.808203,
2009-04-11, 01:27:04,VALID,998.241,VALID,0,VALID,94.2105,VALID,0,VALID,23.8006,VALID,78,VALID,0.695313,
2009-04-11, 01:28:04,VALID,998.247,VALID,0,VALID,94.2182,VALID,0,VALID,23.8006,VALID,93,VALID,0.70625,
2009-04-11, 01:29:04,VALID,998.245,VALID,0,VALID,94.1953,VALID,0,VALID,23.7811,VALID,95,VALID,0.673437,
2009-04-11, 01:30:04,VALID,998.216,VALID,0,VALID,94.1724,VALID,0,VALID,23.7811,VALID,95,VALID,0.567969,
2009-04-11, 01:31:04,VALID,998.271,VALID,0,VALID,94.2029,VALID,0,VALID,23.7811,VALID,95,VALID,0.560547,
2009-04-11, 01:32:04,VALID,998.266,VALID,0,VALID,94.2868,VALID,0,VALID,23.7811,VALID,95,VALID,0.425781,
2009-04-11, 01:33:04,VALID,998.247,VALID,0,VALID,94.2716,VALID,0,VALID,23.7597,VALID,95,VALID,0.339844,
2009-04-11, 01:34:04,VALID,998.267,VALID,0,VALID,94.2411,VALID,0,VALID,23.7811,VALID,95,VALID,0.251172,
2009-04-11, 01:35:04,VALID,998.261,VALID,0,VALID,94.2487,VALID,0,VALID,23.7811,VALID,95,VALID,0.261328,
2009-04-11, 01:36:04,VALID,998.258,VALID,0,VALID,94.1648,VALID,0,VALID,23.7402,VALID,95,VALID,0.205469,
2009-04-11, 01:37:04,VALID,998.281,VALID,0,VALID,94.2105,VALID,0,VALID,23.7207,VALID,95,VALID,0.146094,
2009-04-11, 01:38:04,VALID,998.278,VALID,0,VALID,94.2487,VALID,0,VALID,23.7207,VALID,95,VALID,0.237109,
2009-04-11, 01:39:04,VALID,998.302,VALID,0,VALID,94.3326,VALID,0,VALID,23.7402,VALID,95,VALID,0.287891,
2009-04-11, 01:40:04,VALID,998.294,VALID,0,VALID,94.2792,VALID,0,VALID,23.7616,VALID,95,VALID,0.267578,
2009-04-11, 01:41:04,VALID,998.315,VALID,0,VALID,94.3021,VALID,0,VALID,23.742,VALID,95,VALID,0.289844,
2009-04-11, 01:42:04,VALID,998.262,VALID,0,VALID,94.3403,VALID,0,VALID,23.7616,VALID,95,VALID,0.338281,
2009-04-11, 01:43:04,VALID,998.266,VALID,0,VALID,94.3174,VALID,0,VALID,23.7811,VALID,95,VALID,0.475391,
2009-04-11, 01:44:04,VALID,998.258,VALID,0,VALID,94.3021,VALID,0,VALID,23.7793,VALID,95,VALID,0.41875,
2009-04-11, 01:45:04,VALID,998.228,VALID,0,VALID,94.3174,VALID,0,VALID,23.8006,VALID,7,VALID,0.534375,
2009-04-11, 01:46:04,VALID,998.202,VALID,0,VALID,94.2868,VALID,0,VALID,23.7811,VALID,2,VALID,0.673828,
2009-04-11, 01:47:04,VALID,998.179,VALID,0,VALID,94.2411,VALID,0,VALID,23.7597,VALID,2,VALID,0.571484,
2009-04-11, 01:48:04,VALID,998.161,VALID,0,VALID,94.2411,VALID,0,VALID,23.7793,VALID,2,VALID,0.253906,
2009-04-11, 01:49:04,VALID,998.152,VALID,0,VALID,94.2792,VALID,0,VALID,23.7793,VALID,2,VALID,0.168359,
2009-04-11, 01:50:04,VALID,998.109,VALID,0,VALID,94.2792,VALID,0,VALID,23.8201,VALID,2,VALID,0.333984,
2009-04-11, 01:51:04,VALID,998.069,VALID,0,VALID,94.2258,VALID,0,VALID,23.8006,VALID,3,VALID,0.507031,
2009-04-11, 01:52:04,VALID,998.079,VALID,0,VALID,94.2029,VALID,0,VALID,23.8201,VALID,148,VALID,0.784766,
2009-04-11, 01:53:04,VALID,998.084,VALID,0,VALID,94.2029,VALID,0,VALID,23.8396,VALID,148,VALID,0.861328,
2009-04-11, 01:54:04,VALID,998.087,VALID,0,VALID,94.1724,VALID,0,VALID,23.8183,VALID,140,VALID,0.715234,
2009-04-11, 01:55:04,VALID,998.037,VALID,0,VALID,94.1495,VALID,0,VALID,23.8378,VALID,142,VALID,0.477344,
2009-04-11, 01:56:04,VALID,998.075,VALID,0,VALID,94.1343,VALID,0,VALID,23.8591,VALID,135,VALID,0.663281,
2009-04-11, 01:57:04,VALID,998.049,VALID,0,VALID,94.1266,VALID,0,VALID,23.8786,VALID,134,VALID,0.569922,
2009-04-11, 01:58:04,VALID,998.045,VALID,0,VALID,94.0808,VALID,0,VALID,23.8982,VALID,134,VALID,0.436719,
2009-04-11, 01:59:04,VALID,998.063,VALID,0,VALID,94.0656,VALID,0,VALID,23.8786,VALID,134,VALID,0.440625,
2009-04-11, 02:00:04,VALID,998.043,VALID,0,VALID,94.0274,VALID,0,VALID,23.8982,VALID,134,VALID,0.398047,
2009-04-11, 02:01:04,VALID,998.042,VALID,0,VALID,94.058,VALID,0,VALID,23.8786,VALID,133,VALID,0.475,
2009-04-11, 02:02:04,VALID,998.051,VALID,0,VALID,94.0274,VALID,0,VALID,23.8982,VALID,116,VALID,0.54375,
2009-04-11, 02:03:04,VALID,998.067,VALID,0,VALID,94.0503,VALID,0,VALID,23.8786,VALID,89,VALID,0.977734,
2009-04-11, 02:04:04,VALID,998.026,VALID,0,VALID,94.0122,VALID,0,VALID,23.8982,VALID,89,VALID,0.745313,
2009-04-11, 02:05:04,VALID,997.992,VALID,0,VALID,93.9435,VALID,0,VALID,23.8963,VALID,89,VALID,0.499219,
2009-04-11, 02:06:04,VALID,997.974,VALID,0,VALID,93.852,VALID,0,VALID,23.8963,VALID,88,VALID,0.430859,
2009-04-11, 02:07:04,VALID,997.92,VALID,0,VALID,93.7604,VALID,0,VALID,23.8982,VALID,88,VALID,0.128516,
2009-04-11, 02:08:04,VALID,997.922,VALID,0,VALID,93.7146,VALID,0,VALID,23.8591,VALID,88,VALID,0,
2009-04-11, 02:09:04,VALID,997.901,VALID,0,VALID,93.6612,VALID,0,VALID,23.8591,VALID,88,VALID,0.166797,
2009-04-11, 02:10:04,VALID,997.911,VALID,0,VALID,93.6383,VALID,0,VALID,23.8201,VALID,88,VALID,0,
2009-04-11, 02:11:04,VALID,997.947,VALID,0,VALID,93.6231,VALID,0,VALID,23.7811,VALID,88,VALID,0,
2009-04-11, 02:12:04,VALID,997.947,VALID,0,VALID,93.562,VALID,0,VALID,23.7811,VALID,88,VALID,0,
2009-04-11, 02:13:04,VALID,997.928,VALID,0,VALID,93.6078,VALID,0,VALID,23.742,VALID,88,VALID,0,
2009-04-11, 02:14:04,VALID,997.938,VALID,0,VALID,93.7299,VALID,0,VALID,23.742,VALID,114,VALID,0.425,
2009-04-11, 02:15:04,VALID,997.882,VALID,0,VALID,93.8901,VALID,0,VALID,23.7597,VALID,173,VALID,0.508984,
2009-04-11, 02:16:04,VALID,997.878,VALID,0,VALID,93.974,VALID,0,VALID,23.8006,VALID,173,VALID,0.451953,
2009-04-11, 02:17:04,VALID,997.836,VALID,0,VALID,93.9817,VALID,0,VALID,23.7988,VALID,173,VALID,0.276953,
2009-04-11, 02:18:04,VALID,997.799,VALID,0,VALID,93.9817,VALID,0,VALID,23.8183,VALID,173,VALID,0.350781,
2009-04-11, 02:19:04,VALID,997.817,VALID,0,VALID,93.9664,VALID,0,VALID,23.8396,VALID,173,VALID,0.0535156,
2009-04-11, 02:20:04,VALID,997.826,VALID,0,VALID,93.8825,VALID,0,VALID,23.7988,VALID,173,VALID,0,
2009-04-11, 02:21:04,VALID,997.82,VALID,0,VALID,93.8138,VALID,0,VALID,23.8006,VALID,173,VALID,0,
2009-04-11, 02:22:04,VALID,997.829,VALID,0,VALID,93.9054,VALID,0,VALID,23.7597,VALID,173,VALID,0,
2009-04-11, 02:23:04,VALID,997.792,VALID,0,VALID,93.8596,VALID,0,VALID,23.8006,VALID,173,VALID,0,
2009-04-11, 02:24:04,VALID,997.818,VALID,0,VALID,93.8825,VALID,0,VALID,23.7597,VALID,173,VALID,0,
2009-04-11, 02:25:04,VALID,997.801,VALID,0,VALID,93.913,VALID,0,VALID,23.7811,VALID,173,VALID,0.0710938,
2009-04-11, 02:26:04,VALID,997.807,VALID,0,VALID,93.9283,VALID,0,VALID,23.8006,VALID,173,VALID,0,
2009-04-11, 02:27:04,VALID,997.841,VALID,0,VALID,93.9435,VALID,0,VALID,23.8006,VALID,173,VALID,0.134766,
2009-04-11, 02:28:04,VALID,997.827,VALID,0,VALID,93.9054,VALID,0,VALID,23.8006,VALID,173,VALID,0,
2009-04-11, 02:29:04,VALID,997.858,VALID,0,VALID,93.8596,VALID,0,VALID,23.7811,VALID,173,VALID,0.0675781,
2009-04-11, 02:30:04,VALID,997.852,VALID,0,VALID,93.8062,VALID,0,VALID,23.7793,VALID,173,VALID,0.164453,
2009-04-11, 02:31:04,VALID,997.86,VALID,0,VALID,93.7909,VALID,0,VALID,23.7811,VALID,173,VALID,0.301562,
2009-04-11, 02:32:04,VALID,997.878,VALID,0,VALID,93.6383,VALID,0,VALID,23.7616,VALID,51,VALID,0.587109,
2009-04-11, 02:33:04,VALID,997.843,VALID,0,VALID,93.5391,VALID,0,VALID,23.7225,VALID,41,VALID,0.633594,
2009-04-11, 02:34:04,VALID,997.876,VALID,0,VALID,93.4247,VALID,0,VALID,23.664,VALID,41,VALID,0.393359,
2009-04-11, 02:35:04,VALID,997.856,VALID,0,VALID,93.6383,VALID,0,VALID,23.6232,VALID,41,VALID,0.223828,
2009-04-11, 02:36:04,VALID,997.834,VALID,0,VALID,93.6841,VALID,0,VALID,23.6036,VALID,41,VALID,0.00820312,
2009-04-11, 02:37:04,VALID,997.842,VALID,0,VALID,93.7299,VALID,0,VALID,23.6054,VALID,41,VALID,0.0199219,
2009-04-11, 02:38:04,VALID,997.785,VALID,0,VALID,93.7833,VALID,0,VALID,23.5646,VALID,41,VALID,0,
2009-04-11, 02:39:04,VALID,997.759,VALID,0,VALID,93.8062,VALID,0,VALID,23.5859,VALID,41,VALID,0,
2009-04-11, 02:40:04,VALID,997.753,VALID,0,VALID,93.8825,VALID,0,VALID,23.5664,VALID,41,VALID,0,
2009-04-11, 02:41:04,VALID,997.761,VALID,0,VALID,93.8901,VALID,0,VALID,23.5664,VALID,41,VALID,0,
2009-04-11, 02:42:04,VALID,997.711,VALID,0,VALID,93.913,VALID,0,VALID,23.5469,VALID,41,VALID,0,
2009-04-11, 02:43:04,VALID,997.672,VALID,0,VALID,93.9664,VALID,0,VALID,23.5469,VALID,41,VALID,0,
2009-04-11, 02:44:04,VALID,997.673,VALID,0,VALID,94.0274,VALID,0,VALID,23.5451,VALID,41,VALID,0,
2009-04-11, 02:45:04,VALID,997.639,VALID,0,VALID,94.0885,VALID,0,VALID,23.5469,VALID,41,VALID,0,
2009-04-11, 02:46:04,VALID,997.627,VALID,0,VALID,94.0961,VALID,0,VALID,23.5469,VALID,41,VALID,0.123828,
2009-04-11, 02:47:04,VALID,997.6,VALID,0,VALID,94.2029,VALID,0,VALID,23.5451,VALID,41,VALID,0.389062,
2009-04-11, 02:48:04,VALID,997.584,VALID,0,VALID,94.2945,VALID,0,VALID,23.5646,VALID,88,VALID,0.551172,
2009-04-11, 02:49:04,VALID,997.568,VALID,0,VALID,94.3174,VALID,0,VALID,23.6054,VALID,112,VALID,0.685938,
2009-04-11, 02:50:04,VALID,997.556,VALID,0,VALID,94.2792,VALID,0,VALID,23.625,VALID,122,VALID,0.711719,
2009-04-11, 02:51:04,VALID,997.531,VALID,0,VALID,94.2334,VALID,0,VALID,23.6445,VALID,135,VALID,0.729297,
2009-04-11, 02:52:04,VALID,997.561,VALID,0,VALID,94.2105,VALID,0,VALID,23.664,VALID,156,VALID,0.939453,
2009-04-11, 02:53:04,VALID,997.551,VALID,0,VALID,94.1419,VALID,0,VALID,23.6427,VALID,161,VALID,1.09258,
2009-04-11, 02:54:04,VALID,997.577,VALID,0,VALID,94.1037,VALID,0,VALID,23.6622,VALID,155,VALID,0.9625,
2009-04-11, 02:55:04,VALID,997.612,VALID,0,VALID,94.0045,VALID,0,VALID,23.6835,VALID,152,VALID,0.825781,
2009-04-11, 02:56:04,VALID,997.594,VALID,0,VALID,94.0122,VALID,0,VALID,23.664,VALID,149,VALID,0.832031,
2009-04-11, 02:57:04,VALID,997.598,VALID,0,VALID,93.9511,VALID,0,VALID,23.6427,VALID,150,VALID,0.784375,
2009-04-11, 02:58:04,VALID,997.557,VALID,0,VALID,93.9283,VALID,0,VALID,23.664,VALID,146,VALID,0.720312,
2009-04-11, 02:59:04,VALID,997.577,VALID,0,VALID,93.974,VALID,0,VALID,23.6427,VALID,144,VALID,0.558203,
2009-04-11, 03:00:04,VALID,997.56,VALID,0,VALID,93.9206,VALID,0,VALID,23.6232,VALID,139,VALID,0.617578,
2009-04-11, 03:01:04,VALID,997.559,VALID,0,VALID,93.852,VALID,0,VALID,23.625,VALID,138,VALID,0.486719,
2009-04-11, 03:02:04,VALID,997.559,VALID,0,VALID,93.8748,VALID,0,VALID,23.625,VALID,138,VALID,0.271094,
2009-04-11, 03:03:04,VALID,997.564,VALID,0,VALID,93.852,VALID,0,VALID,23.5841,VALID,138,VALID,0.23125,
2009-04-11, 03:04:04,VALID,997.555,VALID,0,VALID,93.913,VALID,0,VALID,23.5859,VALID,133,VALID,0.48125,
2009-04-11, 03:05:04,VALID,997.557,VALID,0,VALID,93.9206,VALID,0,VALID,23.5646,VALID,137,VALID,0.417578,
2009-04-11, 03:06:04,VALID,997.573,VALID,0,VALID,93.9435,VALID,0,VALID,23.5859,VALID,156,VALID,0.55625,
2009-04-11, 03:07:04,VALID,997.599,VALID,0,VALID,93.974,VALID,0,VALID,23.5859,VALID,145,VALID,0.602734,
2009-04-11, 03:08:04,VALID,997.615,VALID,0,VALID,93.9511,VALID,0,VALID,23.6054,VALID,145,VALID,0.717188,
2009-04-11, 03:09:04,VALID,997.65,VALID,0,VALID,93.913,VALID,0,VALID,23.625,VALID,145,VALID,0.295312,
2009-04-11, 03:10:04,VALID,997.647,VALID,0,VALID,93.8672,VALID,0,VALID,23.6232,VALID,145,VALID,0.190625,
2009-04-11, 03:11:04,VALID,997.685,VALID,0,VALID,93.8062,VALID,0,VALID,23.6445,VALID,145,VALID,0,
2009-04-11, 03:12:04,VALID,997.691,VALID,0,VALID,93.7528,VALID,0,VALID,23.625,VALID,145,VALID,0.028125,
2009-04-11, 03:13:04,VALID,997.654,VALID,0,VALID,93.7375,VALID,0,VALID,23.6445,VALID,145,VALID,0,
2009-04-11, 03:14:04,VALID,997.618,VALID,0,VALID,93.707,VALID,0,VALID,23.6445,VALID,145,VALID,0,
2009-04-11, 03:15:04,VALID,997.553,VALID,0,VALID,93.707,VALID,0,VALID,23.6232,VALID,217,VALID,0.523438,
2009-04-11, 03:16:04,VALID,997.541,VALID,0,VALID,93.646,VALID,0,VALID,23.664,VALID,283,VALID,0.628906,
2009-04-11, 03:17:04,VALID,997.54,VALID,0,VALID,93.5697,VALID,0,VALID,23.664,VALID,299,VALID,0.616406,
2009-04-11, 03:18:04,VALID,997.514,VALID,0,VALID,93.5163,VALID,0,VALID,23.6427,VALID,299,VALID,0.649609,
2009-04-11, 03:19:04,VALID,997.525,VALID,0,VALID,93.501,VALID,0,VALID,23.6445,VALID,299,VALID,0.501562,
2009-04-11, 03:20:04,VALID,997.553,VALID,0,VALID,93.4705,VALID,0,VALID,23.6445,VALID,299,VALID,0.392969,
2009-04-11, 03:21:04,VALID,997.552,VALID,0,VALID,93.44,VALID,0,VALID,23.625,VALID,299,VALID,0.377734,
2009-04-11, 03:22:04,VALID,997.569,VALID,0,VALID,93.4628,VALID,0,VALID,23.6036,VALID,299,VALID,0.307422,
2009-04-11, 03:23:04,VALID,997.542,VALID,0,VALID,93.4857,VALID,0,VALID,23.6054,VALID,299,VALID,0.3625,
2009-04-11, 03:24:04,VALID,997.524,VALID,0,VALID,93.562,VALID,0,VALID,23.6054,VALID,299,VALID,0.335156,
2009-04-11, 03:25:04,VALID,997.488,VALID,0,VALID,93.5773,VALID,0,VALID,23.5646,VALID,299,VALID,0.249609,
2009-04-11, 03:26:04,VALID,997.486,VALID,0,VALID,93.646,VALID,0,VALID,23.5646,VALID,299,VALID,0.355469,
2009-04-11, 03:27:04,VALID,997.465,VALID,0,VALID,93.6917,VALID,0,VALID,23.5451,VALID,299,VALID,0.150781,
2009-04-11, 03:28:04,VALID,997.48,VALID,0,VALID,93.6841,VALID,0,VALID,23.5664,VALID,299,VALID,0,
2009-04-11, 03:29:04,VALID,997.482,VALID,0,VALID,93.6994,VALID,0,VALID,23.5469,VALID,299,VALID,0,
2009-04-11, 03:30:04,VALID,997.506,VALID,0,VALID,93.7528,VALID,0,VALID,23.5469,VALID,299,VALID,0,
2009-04-11, 03:31:04,VALID,997.47,VALID,0,VALID,93.852,VALID,0,VALID,23.5061,VALID,299,VALID,0,
2009-04-11, 03:32:04,VALID,997.473,VALID,0,VALID,93.9435,VALID,0,VALID,23.5469,VALID,299,VALID,0,
2009-04-11, 03:33:04,VALID,997.462,VALID,0,VALID,93.9664,VALID,0,VALID,23.5469,VALID,299,VALID,0,
2009-04-11, 03:34:04,VALID,997.484,VALID,0,VALID,94.0045,VALID,0,VALID,23.5664,VALID,299,VALID,0.4625,
2009-04-11, 03:35:04,VALID,997.484,VALID,0,VALID,93.9359,VALID,0,VALID,23.5664,VALID,299,VALID,0.733594,
2009-04-11, 03:36:04,VALID,997.489,VALID,0,VALID,93.8825,VALID,0,VALID,23.5646,VALID,299,VALID,0.823047,
2009-04-11, 03:37:04,VALID,997.492,VALID,0,VALID,93.768,VALID,0,VALID,23.5646,VALID,298,VALID,0.841016,
2009-04-11, 03:38:04,VALID,997.501,VALID,0,VALID,93.7985,VALID,0,VALID,23.5646,VALID,117,VALID,0.782812,
2009-04-11, 03:39:04,VALID,997.505,VALID,0,VALID,93.7833,VALID,0,VALID,23.5646,VALID,117,VALID,0.697266,
2009-04-11, 03:40:04,VALID,997.485,VALID,0,VALID,93.7985,VALID,0,VALID,23.5859,VALID,128,VALID,0.706641,
2009-04-11, 03:41:04,VALID,997.469,VALID,0,VALID,93.8443,VALID,0,VALID,23.5841,VALID,149,VALID,0.811328,
2009-04-11, 03:42:04,VALID,997.492,VALID,0,VALID,93.8977,VALID,0,VALID,23.625,VALID,155,VALID,0.891797,
2009-04-11, 03:43:04,VALID,997.514,VALID,0,VALID,93.852,VALID,0,VALID,23.6445,VALID,156,VALID,0.854688,
2009-04-11, 03:44:04,VALID,997.523,VALID,0,VALID,93.7223,VALID,0,VALID,23.664,VALID,154,VALID,0.777734,
2009-04-11, 03:45:04,VALID,997.56,VALID,0,VALID,93.5697,VALID,0,VALID,23.6427,VALID,154,VALID,0.839063,
2009-04-11, 03:46:04,VALID,997.541,VALID,0,VALID,93.4628,VALID,0,VALID,23.6232,VALID,155,VALID,0.830859,
2009-04-11, 03:47:04,VALID,997.558,VALID,0,VALID,93.3713,VALID,0,VALID,23.6427,VALID,153,VALID,1.02344,